Hourly Data Report for October 31, 2015

All times are specified in Local Standard Time (LST). Add 1 hour to adjust for Daylight Saving Time where and when it is observed.

CHARLOTTETOWN A
PRINCE EDWARD ISLAND

46°17'21.000" N
63°07'09.000" W
48.50 m
8300301
71706
YYG

Download Data

Hourly Data (October 2015)
Hourly Data Report for October 31, 2015
Temp Definition
°C
Dew Point Temp Definition
°C
Rel Hum Definition
%
Wind Dir Definition
10's deg

Wind Spd Definition
km/h
Visibility Definition
km
Stn Press Definition
kPa
Hmdx Definition


Wind Chill Definition


Weather Definition


TIME
00:00 Legend Double Dagger 3.4 -5.0 54 28 17 24.1 100.16     LegendNANA
01:00 Legend Double Dagger 3.1 -5.1 55 28 21 24.1 100.24     LegendNANA
02:00 Legend Double Dagger 2.7 -4.8 58 29 23 24.1 100.32     Mainly Clear
03:00 Legend Double Dagger 2.3 -5.1 58 29 31 24.1 100.38     LegendNANA
04:00 Legend Double Dagger 1.8 -4.7 62 29 21 24.1 100.45     LegendNANA
05:00 Legend Double Dagger 1.4 -4.7 64 28 16 24.1 100.53     Mainly Clear
06:00 Legend Double Dagger 1.7 -4.8 62 29 19 24.1 100.64     LegendNANA
07:00 Legend Double Dagger 1.6 -4.7 63 28 23 24.1 100.73     LegendNANA
08:00 Legend Double Dagger 2.4 -4.2 62 28 18 24.1 100.87     Mostly Cloudy
09:00 Legend Double Dagger 3.1 -3.5 62 29 20 24.1 100.94     LegendNANA
10:00 Legend Double Dagger 4.1 -2.8 61 31 20 24.1 100.97     LegendNANA
11:00 Legend Double Dagger 5.0 -2.8 57 30 19 24.1 101.04     Mainly Clear
12:00 Legend Double Dagger 5.4 -2.9 55 31 16 24.1 101.09     LegendNANA
13:00 Legend Double Dagger 6.0 -2.4 55 29 13 24.1 101.06     LegendNANA
14:00 Legend Double Dagger 6.2 -2.9 52 28 19 24.1 101.14     Mainly Clear
15:00 Legend Double Dagger 6.3 -2.3 54 26 15 24.1 101.21     LegendNANA
16:00 Legend Double Dagger 5.8 -3.6 51 27 17 24.1 101.26     LegendNANA
17:00 Legend Double Dagger 4.3 -3.0 59 25 7 24.1 101.29     Mostly Cloudy
18:00 Legend Double Dagger 4.0 -2.4 63 20 7 24.1 101.27     LegendNANA
19:00 Legend Double Dagger 3.8 -2.0 66 21 7 24.1 101.35     LegendNANA
20:00 Legend Double Dagger 4.3 -0.7 70 23 8 24.1 101.31     Cloudy
21:00 Legend Double Dagger 5.2 -1.1 64 25 11 24.1 101.32     LegendNANA
22:00 Legend Double Dagger 5.2 -1.1 64 24 6 24.1 101.33     LegendNANA
23:00 Legend Double Dagger 5.2 -1.1 64 24 7 24.1 101.31     Cloudy

Notes on Data Quality.

Legend

  • E = Estimated
  • M = Missing
  • NA = Not Available
  • ‡ = Partner data that is not subject to review by the National Climate Archives
Date modified: